CUSAT 2 & FALCON 9 R/B (39271 NORAD) Tracking and Keplerian Element Data

This shows tracking and keplerian element data for the satellite.

Feedback or suggestion? Click here.




ElementValue
Catalog39271
NameCUSAT 2 & FALCON 9 R/B
Epoch Orbit54173
Epoch Day12.74590025
Epoch Year2024
RAAN265.4952
Inclination80.9405
Eccentricity0.0373687
Argument of Perigee104.145
Mean Anonmoly260.1589
Mean Motion15.03322453
Decay Rate0.00048685
L11 39271U 13055G 24012.74590025 .00048685 -51857-6 70168-3 0 9996
L22 39271 80.9405 265.4952 0373687 104.1450 260.1589 15.03322453541731



Live tracking and technical data element details for CUSAT 2 & FALCON 9 R/B (NORAD 39271). CUSAT 2 & FALCON 9 R/B can be tracked NOW for your location showing map with azimuth and elevation plus other details from your city location.







IsCatalogInMostPopularTable: catalog: 39271, numindb: 1097
Update: records affected: 1



GetName: 39271 CUSAT 2 & FALCON 9 R/B

Hit Count: updated at: Wed, 21 Feb 2024 09:23:33 GMT